| time (UTC) | temp F | wind direction | speed knots | gust knots | rain 1hr in | rain 24hr in | rain mn in | humidity % | barometer mb |
| 20260906231356 | 63 | 17 | 1.7 | 5.2 | 0.00 | 0.00 | 0.00 | 73 | 1018.6 |
| 20260906230913 | 64 | 22 | 1.7 | 7.8 | 0.00 | 0.00 | 0.00 | 73 | 1018.6 |
| 20260906230349 | 64 | 55 | 3.5 | 7.8 | 0.00 | 0.00 | 0.00 | 72 | 1018.5 |
| 20260906225843 | 64 | 68 | 2.6 | 6.1 | 0.00 | 0.00 | 0.00 | 72 | 1018.6 |
| 20260906225340 | 64 | 34 | 2.6 | 8.7 | 0.00 | 0.00 | 0.00 | 72 | 1018.5 |
| 20260906224840 | 64 | 23 | 2.6 | 10.4 | 0.00 | 0.00 | 0.00 | 72 | 1018.6 |
| 20260906224400 | 64 | 107 | 1.7 | 10.4 | 0.00 | 0.00 | 0.00 | 73 | 1018.4 |
| 20260906223851 | 65 | 72 | 3.5 | 7.0 | 0.00 | 0.00 | 0.00 | 74 | 1018.3 |
| 20260906223352 | 65 | 43 | 2.6 | 7.0 | 0.00 | 0.00 | 0.00 | 75 | 1018.5 |
| 20260906222847 | 65 | 29 | 2.6 | 7.0 | 0.00 | 0.00 | 0.00 | 74 | 1018.4 |
| 20260906222349 | 66 | 120 | 1.7 | 7.0 | 0.00 | 0.00 | 0.00 | 73 | 1018.3 |
| 20260906221839 | 66 | 13 | 2.6 | 7.0 | 0.00 | 0.00 | 0.00 | 73 | 1018.3 |
| 20260906221400 | 66 | 82 | 4.3 | 9.6 | 0.00 | 0.00 | 0.00 | 74 | 1018.2 |
| 20260906220835 | 66 | 86 | 4.3 | 9.6 | 0.00 | 0.00 | 0.00 | 74 | 1018.2 |
| 20260906220349 | 66 | 40 | 2.6 | 7.8 | 0.00 | 0.00 | 0.00 | 74 | 1018.2 |
| 20260906215841 | 67 | 26 | 3.5 | 12.2 | 0.00 | 0.00 | 0.00 | 72 | 1018.2 |
| 20260906215338 | 67 | 90 | 3.5 | 12.2 | 0.00 | 0.00 | 0.00 | 73 | 1018.4 |
| 20260906214848 | 67 | 68 | 3.5 | 10.4 | 0.00 | 0.00 | 0.00 | 72 | 1018.3 |
| 20260906214341 | 68 | 9 | 5.2 | 10.4 | 0.00 | 0.00 | 0.00 | 73 | 1018.2 |
| 20260906213847 | 68 | 49 | 4.3 | 10.4 | 0.00 | 0.00 | 0.00 | 73 | 1018.2 |
| 20260906213401 | 68 | 31 | 3.5 | 9.6 | 0.00 | 0.00 | 0.00 | 71 | 1018.2 |
| 20260906212836 | 68 | 24 | 4.3 | 10.4 | 0.00 | 0.00 | 0.00 | 71 | 1018.2 |
| 20260906212400 | 68 | 15 | 3.5 | 11.3 | 0.00 | 0.00 | 0.00 | 71 | 1018.2 |
| 20260906211857 | 69 | 30 | 7.0 | 11.3 | 0.00 | 0.00 | 0.00 | 71 | 1018.2 |
| 20260906211335 | 69 | 9 | 4.3 | 10.4 | 0.00 | 0.00 | 0.00 | 71 | 1018.3 |
| 20260906210835 | 69 | 53 | 3.5 | 10.4 | 0.00 | 0.00 | 0.00 | 70 | 1018.0 |
| 20260906210331 | 69 | 79 | 4.3 | 10.4 | 0.00 | 0.00 | 0.00 | 68 | 1018.0 |
| 20260906205846 | 69 | 117 | 5.2 | 10.4 | 0.00 | 0.00 | 0.00 | 68 | 1018.1 |
| 20260906205356 | 70 | 22 | 4.3 | 12.2 | 0.00 | 0.00 | 0.00 | 69 | 1018.1 |
| 20260906204839 | 70 | 43 | 5.2 | 12.2 | 0.00 | 0.00 | 0.00 | 68 | 1018.0 |
| 20260906204343 | 71 | 53 | 4.3 | 12.2 | 0.00 | 0.00 | 0.00 | 70 | 1018.0 |
| 20260906203858 | 70 | 5 | 3.5 | 8.7 | 0.00 | 0.00 | 0.00 | 70 | 1018.0 |
| 20260906203335 | 70 | 85 | 2.6 | 11.3 | 0.00 | 0.00 | 0.00 | 70 | 1018.0 |
| 20260906202835 | 70 | 68 | 5.2 | 11.3 | 0.00 | 0.00 | 0.00 | 69 | 1017.9 |
| 20260906202335 | 71 | 70 | 5.2 | 12.2 | 0.00 | 0.00 | 0.00 | 69 | 1018.0 |
| 20260906201850 | 71 | 22 | 6.1 | 12.2 | 0.00 | 0.00 | 0.00 | 67 | 1018.0 |
| 20260906201353 | 71 | 72 | 4.3 | 8.7 | 0.00 | 0.00 | 0.00 | 67 | 1017.9 |
| 20260906200844 | 71 | 22 | 4.3 | 8.7 | 0.00 | 0.00 | 0.00 | 67 | 1017.9 |
| 20260906200355 | 71 | 9 | 4.3 | 8.7 | 0.00 | 0.00 | 0.00 | 71 | 1018.0 |
| 20260906195843 | 72 | 42 | 2.6 | 13.0 | 0.00 | 0.00 | 0.00 | 67 | 1018.0 |
| 20260906195404 | 72 | 9 | 7.0 | 13.0 | 0.00 | 0.00 | 0.00 | 67 | 1017.9 |
| 20260906194839 | 72 | 24 | 4.3 | 9.6 | 0.00 | 0.00 | 0.00 | 66 | 1017.8 |
| 20260906194334 | 71 | 44 | 3.5 | 9.6 | 0.00 | 0.00 | 0.00 | 65 | 1017.9 |
| 20260906193835 | 71 | 30 | 5.2 | 9.6 | 0.00 | 0.00 | 0.00 | 66 | 1017.9 |
| 20260906193350 | 69 | 342 | 3.5 | 11.3 | 0.00 | 0.00 | 0.00 | 70 | 1018.0 |
| 20260906192849 | 70 | 63 | 3.5 | 13.0 | 0.00 | 0.00 | 0.00 | 68 | 1018.0 |
| 20260906192343 | 72 | 71 | 7.8 | 13.0 | 0.00 | 0.00 | 0.00 | 66 | 1018.0 |
| 20260906191835 | 71 | 112 | 4.3 | 10.4 | 0.00 | 0.00 | 0.00 | 67 | 1017.9 |
| 20260906191351 | 71 | 91 | 3.5 | 10.4 | 0.00 | 0.00 | 0.00 | 65 | 1017.9 |
| 20260906190845 | 71 | 355 | 3.5 | 12.2 | 0.00 | 0.00 | 0.00 | 67 | 1018.0 |
| 20260906190342 | 71 | 84 | 7.0 | 12.2 | 0.00 | 0.00 | 0.00 | 65 | 1018.1 |
| 20260906185835 | 71 | 81 | 7.0 | 9.6 | 0.00 | 0.00 | 0.00 | 67 | 1018.0 |
| 20260906185355 | 71 | 40 | 2.6 | 9.6 | 0.00 | 0.00 | 0.00 | 68 | 1018.0 |
| 20260906184854 | 71 | 26 | 2.6 | 12.2 | 0.00 | 0.00 | 0.00 | 68 | 1018.0 |
| 20260906184343 | 71 | 22 | 3.5 | 7.0 | 0.00 | 0.00 | 0.00 | 71 | 1018.0 |
| 20260906183851 | 71 | 15 | 3.5 | 10.4 | 0.00 | 0.00 | 0.00 | 68 | 1018.0 |
| 20260906183356 | 70 | 15 | 2.6 | 11.3 | 0.00 | 0.00 | 0.00 | 67 | 1018.1 |
| 20260906182850 | 70 | 34 | 3.5 | 11.3 | 0.00 | 0.00 | 0.00 | 71 | 1018.1 |
| 20260906182344 | 70 | 91 | 4.3 | 8.7 | 0.00 | 0.00 | 0.00 | 69 | 1018.0 |
| 20260906181858 | 70 | 131 | 4.3 | 12.2 | 0.00 | 0.00 | 0.00 | 71 | 1018.1 |
| 20260906181338 | 71 | 101 | 4.3 | 12.2 | 0.00 | 0.00 | 0.00 | 70 | 1018.1 |
| 20260906180838 | 71 | 5 | 1.7 | 8.7 | 0.00 | 0.00 | 0.00 | 73 | 1018.2 |
| 20260906180351 | 69 | 355 | 4.3 | 9.6 | 0.00 | 0.00 | 0.00 | 75 | 1018.2 |
| 20260906175839 | 69 | 323 | 4.3 | 10.4 | 0.00 | 0.00 | 0.00 | 71 | 1018.3 |
| 20260906175350 | 70 | 43 | 6.1 | 10.4 | 0.00 | 0.00 | 0.00 | 69 | 1018.2 |
| 20260906174847 | 70 | 103 | 3.5 | 7.8 | 0.00 | 0.00 | 0.00 | 73 | 1018.2 |
| 20260906174336 | 69 | 123 | 4.3 | 8.7 | 0.00 | 0.00 | 0.00 | 73 | 1018.3 |
| 20260906173836 | 67 | 47 | 2.6 | 9.6 | 0.00 | 0.00 | 0.00 | 77 | 1018.4 |
| 20260906173348 | 68 | 38 | 3.5 | 11.3 | 0.00 | 0.00 | 0.00 | 77 | 1018.3 |
| 20260906172848 | 69 | 115 | 4.3 | 13.0 | 0.00 | 0.00 | 0.00 | 75 | 1018.4 |
| 20260906172344 | 70 | 334 | 3.5 | 13.0 | 0.00 | 0.00 | 0.00 | 73 | 1018.4 |
| 20260906171844 | 70 | 153 | 5.2 | 9.6 | 0.00 | 0.00 | 0.00 | 75 | 1018.3 |
| 20260906171337 | 69 | 89 | 3.5 | 9.6 | 0.00 | 0.00 | 0.00 | 75 | 1018.2 |
| 20260906170835 | 68 | 84 | 4.3 | 10.4 | 0.00 | 0.00 | 0.00 | 74 | 1018.3 |
| 20260906170353 | 69 | 344 | 5.2 | 10.4 | 0.00 | 0.00 | 0.00 | 75 | 1018.4 |
| 20260906165847 | 68 | 28 | 4.3 | 8.7 | 0.00 | 0.00 | 0.00 | 75 | 1018.4 |
| 20260906165351 | 70 | 32 | 3.5 | 9.6 | 0.00 | 0.00 | 0.00 | 72 | 1018.3 |
| 20260906164847 | 72 | 28 | 4.3 | 9.6 | 0.00 | 0.00 | 0.00 | 71 | 1018.2 |
| 20260906163855 | 70 | 72 | 4.3 | 12.2 | 0.00 | 0.00 | 0.00 | 72 | 1018.3 |
| 20260906163352 | 70 | 104 | 2.6 | 12.2 | 0.00 | 0.00 | 0.00 | 71 | 1018.3 |
| 20260906162847 | 69 | 24 | 6.1 | 10.4 | 0.00 | 0.00 | 0.00 | 72 | 1018.4 |
| 20260906162349 | 70 | 57 | 3.5 | 10.4 | 0.00 | 0.00 | 0.00 | 75 | 1018.5 |
| 20260906161847 | 70 | 12 | 5.2 | 9.6 | 0.00 | 0.00 | 0.00 | 74 | 1018.4 |
| 20260906161344 | 69 | 22 | 5.2 | 9.6 | 0.00 | 0.00 | 0.00 | 78 | 1018.5 |
| 20260906160842 | 67 | 82 | 2.6 | 7.0 | 0.00 | 0.00 | 0.00 | 79 | 1018.5 |
| 20260906160351 | 67 | 9 | 2.6 | 8.7 | 0.00 | 0.00 | 0.00 | 79 | 1018.6 |
| 20260906155835 | 67 | 60 | 5.2 | 7.8 | 0.00 | 0.00 | 0.00 | 78 | 1018.6 |
| 20260906155343 | 66 | 360 | 4.3 | 7.0 | 0.00 | 0.00 | 0.00 | 79 | 1018.5 |
| 20260906154845 | 67 | 40 | 2.6 | 7.0 | 0.00 | 0.00 | 0.00 | 79 | 1018.6 |
| 20260906154344 | 67 | 36 | 2.6 | 7.0 | 0.00 | 0.00 | 0.00 | 78 | 1018.5 |
| 20260906153836 | 68 | 11 | 2.6 | 7.0 | 0.00 | 0.00 | 0.00 | 78 | 1018.5 |
| 20260906153353 | 68 | 21 | 2.6 | 8.7 | 0.00 | 0.00 | 0.00 | 79 | 1018.5 |
| 20260906152845 | 68 | 23 | 4.3 | 8.7 | 0.00 | 0.00 | 0.00 | 79 | 1018.4 |
| 20260906152347 | 67 | 79 | 2.6 | 8.7 | 0.00 | 0.00 | 0.00 | 80 | 1018.5 |
| 20260906151843 | 66 | 338 | 4.3 | 8.7 | 0.00 | 0.00 | 0.00 | 79 | 1018.6 |
| 20260906151348 | 67 | 351 | 4.3 | 9.6 | 0.00 | 0.00 | 0.00 | 79 | 1018.5 |
| 20260906150835 | 67 | 43 | 2.6 | 7.8 | 0.00 | 0.00 | 0.00 | 81 | 1018.5 |
| 20260906150351 | 68 | 65 | 3.5 | 13.0 | 0.00 | 0.00 | 0.00 | 78 | 1018.5 |
| 20260906145840 | 68 | 73 | 3.5 | 13.0 | 0.00 | 0.00 | 0.00 | 82 | 1018.4 |
| 20260906145349 | 68 | 103 | 4.3 | 9.6 | 0.00 | 0.00 | 0.00 | 82 | 1018.3 |
| 20260906144837 | 67 | 17 | 5.2 | 8.7 | 0.00 | 0.00 | 0.00 | 84 | 1018.3 |
| 20260906144340 | 65 | 15 | 2.6 | 7.8 | 0.00 | 0.00 | 0.00 | 86 | 1018.3 |
| 20260906143837 | 65 | 355 | 2.6 | 8.7 | 0.00 | 0.00 | 0.00 | 84 | 1018.3 |
| 20260906143338 | 66 | 331 | 3.5 | 8.7 | 0.00 | 0.00 | 0.00 | 84 | 1018.3 |
| 20260906142858 | 65 | 42 | 2.6 | 5.2 | 0.00 | 0.00 | 0.00 | 84 | 1018.2 |
| 20260906142342 | 65 | 85 | 1.7 | 6.1 | 0.00 | 0.00 | 0.00 | 87 | 1018.2 |
| 20260906141850 | 64 | 92 | 2.6 | 5.2 | 0.00 | 0.00 | 0.00 | 87 | 1018.3 |
| 20260906141353 | 64 | 85 | 1.7 | 5.2 | 0.00 | 0.00 | 0.00 | 87 | 1018.2 |
| 20260906140836 | 64 | 43 | 1.7 | 7.0 | 0.00 | 0.00 | 0.00 | 87 | 1018.1 |
| 20260906140335 | 64 | 67 | 2.6 | 7.8 | 0.00 | 0.00 | 0.00 | 87 | 1018.0 |
| 20260906135845 | 64 | 39 | 1.7 | 7.8 | 0.00 | 0.00 | 0.00 | 88 | 1018.0 |
| 20260906135341 | 64 | 71 | 2.6 | 7.0 | 0.00 | 0.00 | 0.00 | 89 | 1018.1 |
| 20260906134858 | 64 | 5 | 3.5 | 8.7 | 0.00 | 0.00 | 0.00 | 90 | 1018.0 |
| 20260906134333 | 64 | 89 | 4.3 | 7.8 | 0.00 | 0.00 | 0.00 | 89 | 1017.9 |
| 20260906133909 | 63 | 134 | 1.7 | 7.0 | 0.00 | 0.00 | 0.00 | 90 | 1017.9 |
| 20260906133345 | 64 | 94 | 3.5 | 7.8 | 0.00 | 0.00 | 0.00 | 89 | 1018.0 |
| 20260906132840 | 64 | 12 | 2.6 | 7.8 | 0.00 | 0.00 | 0.00 | 90 | 1018.0 |
| 20260906132335 | 64 | 44 | 3.5 | 7.8 | 0.00 | 0.00 | 0.00 | 90 | 1017.9 |
| 20260906131851 | 63 | 32 | 3.5 | 7.8 | 0.00 | 0.00 | 0.00 | 90 | 1017.9 |
| 20260906131348 | 63 | 97 | 2.6 | 7.0 | 0.00 | 0.00 | 0.00 | 90 | 1017.9 |
| 20260906130844 | 63 | 5 | 2.6 | 7.8 | 0.00 | 0.00 | 0.00 | 90 | 1017.8 |
| 20260906130339 | 64 | 111 | 3.5 | 7.8 | 0.00 | 0.00 | 0.00 | 88 | 1017.8 |
| 20260906125909 | 64 | 103 | 1.7 | 6.1 | 0.00 | 0.00 | 0.00 | 90 | 1017.7 |
| 20260906125406 | 64 | 19 | 3.5 | 5.2 | 0.00 | 0.00 | 0.00 | 89 | 1017.7 |
| 20260906124841 | 64 | 65 | 4.3 | 7.0 | 0.00 | 0.00 | 0.00 | 89 | 1017.4 |
| 20260906124337 | 64 | 66 | 1.7 | 5.2 | 0.00 | 0.00 | 0.00 | 88 | 1017.5 |
| 20260906123834 | 64 | 69 | 3.5 | 6.1 | 0.00 | 0.00 | 0.00 | 89 | 1017.5 |
| 20260906123350 | 64 | 25 | 2.6 | 5.2 | 0.00 | 0.00 | 0.00 | 89 | 1017.4 |
| 20260906122906 | 64 | 360 | 2.6 | 4.3 | 0.00 | 0.00 | 0.00 | 90 | 1017.4 |
| 20260906122400 | 64 | 110 | 2.6 | 4.3 | 0.00 | 0.00 | 0.00 | 91 | 1017.5 |
| 20260906121835 | 63 | 73 | 0.9 | 5.2 | 0.00 | 0.00 | 0.00 | 90 | 1017.5 |
| 20260906121332 | 63 | 39 | 2.6 | 5.2 | 0.00 | 0.00 | 0.00 | 91 | 1017.5 |
| 20260906120850 | 63 | 44 | 2.6 | 5.2 | 0.00 | 0.00 | 0.00 | 92 | 1017.4 |
| 20260906120329 | 63 | 28 | 1.7 | 4.3 | 0.00 | 0.00 | 0.00 | 92 | 1017.4 |
| 20260906115838 | 63 | 64 | 1.7 | 4.3 | 0.00 | 0.00 | 0.00 | 93 | 1017.5 |
| 20260906115335 | 62 | 107 | 0.9 | 4.3 | 0.00 | 0.00 | 0.00 | 94 | 1017.4 |
| 20260906114851 | 61 | 22 | 0.9 | 3.5 | 0.00 | 0.00 | 0.00 | 94 | 1017.4 |
| 20260906114347 | 61 | 5 | 1.7 | 3.5 | 0.00 | 0.00 | 0.00 | 94 | 1017.2 |
| 20260906113844 | 61 | 71 | 0.9 | 2.6 | 0.00 | 0.00 | 0.00 | 94 | 1017.2 |
| 20260906113339 | 60 | 71 | 0.0 | 1.7 | 0.00 | 0.00 | 0.00 | 94 | 1017.1 |
| 20260906112836 | 60 | 71 | 0.9 | 1.7 | 0.00 | 0.00 | 0.00 | 93 | 1017.1 |
| 20260906112334 | 60 | 71 | 0.9 | 1.7 | 0.00 | 0.00 | 0.00 | 94 | 1017.1 |
| 20260906111849 | 60 | 71 | 0.9 | 1.7 | 0.00 | 0.00 | 0.00 | 93 | 1017.0 |
| 20260906111405 | 60 | 71 | 0.0 | 0.9 | 0.00 | 0.00 | 0.00 | 93 | 1016.8 |
| 20260906110840 | 60 | 71 | 0.0 | 0.9 | 0.00 | 0.00 | 0.00 | 93 | 1016.9 |
| 20260906110336 | 60 | 71 | 0.0 | 0.9 | 0.00 | 0.00 | 0.00 | 93 | 1016.8 |
| 20260906105845 | 60 | 71 | 0.0 | 0.9 | 0.00 | 0.00 | 0.00 | 93 | 1016.8 |
| 20260906105341 | 60 | 71 | 0.0 | 1.7 | 0.00 | 0.00 | 0.00 | 93 | 1016.8 |
| 20260906104838 | 60 | 71 | 0.9 | 1.7 | 0.00 | 0.00 | 0.00 | 93 | 1016.7 |
| 20260906104333 | 59 | 71 | 0.0 | 1.7 | 0.00 | 0.00 | 0.00 | 93 | 1016.7 |
| 20260906103850 | 59 | 71 | 0.0 | 1.7 | 0.00 | 0.00 | 0.00 | 93 | 1016.7 |
| 20260906103346 | 59 | 71 | 0.9 | 1.7 | 0.00 | 0.00 | 0.00 | 93 | 1016.6 |
| 20260906102846 | 59 | 71 | 0.9 | 1.7 | 0.00 | 0.00 | 0.00 | 92 | 1016.6 |
| 20260906102342 | 59 | 71 | 0.9 | 1.7 | 0.00 | 0.00 | 0.00 | 92 | 1016.6 |
| 20260906101859 | 59 | 71 | 0.0 | 1.7 | 0.00 | 0.00 | 0.00 | 92 | 1016.6 |
| 20260906101335 | 59 | 71 | 0.0 | 1.7 | 0.00 | 0.00 | 0.00 | 92 | 1016.6 |
| 20260906100851 | 59 | 71 | 0.0 | 0.9 | 0.00 | 0.00 | 0.00 | 92 | 1016.6 |
| 20260906100347 | 59 | 71 | 0.0 | 0.9 | 0.00 | 0.00 | 0.00 | 92 | 1016.5 |
| 20260906095835 | 59 | 71 | 0.0 | 0.9 | 0.00 | 0.00 | 0.00 | 92 | 1016.5 |
| 20260906095351 | 59 | 71 | 0.0 | 0.0 | 0.00 | 0.00 | 0.00 | 92 | 1016.5 |
| 20260906094846 | 59 | 71 | 0.0 | 0.0 | 0.00 | 0.00 | 0.00 | 92 | 1016.3 |
| 20260906094403 | 59 | 71 | 0.0 | 0.0 | 0.00 | 0.00 | 0.00 | 92 | 1016.3 |
| 20260906093858 | 59 | 71 | 0.0 | 0.9 | 0.00 | 0.00 | 0.00 | 92 | 1016.3 |
| 20260906093333 | 59 | 71 | 0.0 | 0.9 | 0.00 | 0.00 | 0.00 | 91 | 1016.2 |
| 20260906092850 | 59 | 71 | 0.0 | 0.0 | 0.00 | 0.00 | 0.00 | 91 | 1016.1 |
| 20260906092342 | 59 | 71 | 0.0 | 0.0 | 0.00 | 0.00 | 0.00 | 91 | 1016.0 |
| 20260906091840 | 59 | 71 | 0.0 | 0.9 | 0.00 | 0.00 | 0.00 | 91 | 1016.0 |
| 20260906091336 | 59 | 71 | 0.0 | 0.9 | 0.00 | 0.00 | 0.00 | 91 | 1016.0 |
| 20260906090851 | 59 | 71 | 0.0 | 0.0 | 0.00 | 0.00 | 0.00 | 91 | 1016.0 |
| 20260906090347 | 59 | 71 | 0.0 | 0.0 | 0.00 | 0.00 | 0.00 | 91 | 1016.0 |
| 20260906085836 | 59 | 71 | 0.0 | 0.0 | 0.00 | 0.00 | 0.00 | 90 | 1015.9 |
| 20260906085352 | 59 | 71 | 0.0 | 0.0 | 0.00 | 0.00 | 0.00 | 90 | 1015.8 |
| 20260906084847 | 59 | 71 | 0.0 | 0.0 | 0.00 | 0.00 | 0.00 | 90 | 1015.8 |
| 20260906084347 | 59 | 71 | 0.0 | 0.0 | 0.00 | 0.00 | 0.00 | 91 | 1015.8 |
| 20260906083844 | 59 | 71 | 0.0 | 1.7 | 0.00 | 0.00 | 0.00 | 90 | 1015.6 |
| 20260906083341 | 59 | 71 | 0.0 | 1.7 | 0.00 | 0.00 | 0.00 | 90 | 1015.6 |
| 20260906082857 | 59 | 71 | 0.0 | 0.9 | 0.00 | 0.00 | 0.00 | 90 | 1015.6 |
| 20260906082353 | 59 | 71 | 0.0 | 1.7 | 0.00 | 0.00 | 0.00 | 90 | 1015.5 |
| 20260906081847 | 59 | 71 | 0.0 | 1.7 | 0.00 | 0.00 | 0.00 | 90 | 1015.5 |
| 20260906081345 | 59 | 71 | 0.0 | 0.9 | 0.00 | 0.00 | 0.00 | 90 | 1015.6 |
| 20260906080901 | 59 | 71 | 0.0 | 1.7 | 0.00 | 0.00 | 0.00 | 89 | 1015.4 |
| 20260906080336 | 59 | 71 | 0.0 | 1.7 | 0.00 | 0.00 | 0.00 | 90 | 1015.4 |
| 20260906075844 | 59 | 71 | 0.9 | 1.7 | 0.00 | 0.00 | 0.00 | 89 | 1015.4 |
| 20260906075341 | 60 | 71 | 0.0 | 2.6 | 0.00 | 0.00 | 0.00 | 88 | 1015.3 |
| 20260906074838 | 60 | 71 | 0.0 | 2.6 | 0.00 | 0.00 | 0.00 | 89 | 1015.3 |
| 20260906074354 | 60 | 71 | 0.0 | 1.7 | 0.00 | 0.00 | 0.00 | 90 | 1015.5 |
| 20260906073849 | 59 | 71 | 0.0 | 1.7 | 0.00 | 0.00 | 0.00 | 91 | 1015.4 |
| 20260906073345 | 59 | 71 | 0.9 | 1.7 | 0.00 | 0.00 | 0.00 | 90 | 1015.5 |
| 20260906072842 | 59 | 71 | 0.0 | 1.7 | 0.00 | 0.00 | 0.00 | 90 | 1015.3 |
| 20260906072358 | 59 | 71 | 0.0 | 1.7 | 0.00 | 0.00 | 0.00 | 90 | 1015.2 |
| 20260906071833 | 59 | 71 | 0.0 | 1.7 | 0.00 | 0.00 | 0.00 | 90 | 1015.2 |
| 20260906071350 | 59 | 71 | 0.0 | 1.7 | 0.00 | 0.00 | 0.00 | 90 | 1015.2 |
| 20260906070846 | 59 | 71 | 0.9 | 1.7 | 0.00 | 0.00 | 0.00 | 90 | 1015.2 |
| 20260906070342 | 59 | 71 | 0.0 | 1.7 | 0.00 | 0.00 | 0.00 | 90 | 1015.2 |
| 20260906065834 | 59 | 71 | 0.0 | 1.7 | 0.00 | 0.00 | 0.00 | 90 | 1015.3 |
| 20260906065350 | 60 | 71 | 0.0 | 0.9 | 0.00 | 0.00 | 0.00 | 89 | 1015.4 |
| 20260906064846 | 60 | 71 | 0.0 | 0.9 | 0.00 | 0.00 | 0.00 | 88 | 1015.3 |
| 20260906064342 | 60 | 71 | 0.0 | 1.7 | 0.00 | 0.00 | 0.00 | 88 | 1015.3 |
| 20260906063837 | 61 | 71 | 0.9 | 2.6 | 0.00 | 0.00 | 0.00 | 88 | 1015.3 |
| 20260906063334 | 61 | 71 | 0.0 | 2.6 | 0.00 | 0.00 | 0.00 | 88 | 1015.4 |
| 20260906062849 | 61 | 71 | 0.9 | 3.5 | 0.00 | 0.00 | 0.00 | 87 | 1015.4 |
| 20260906062407 | 61 | 71 | 1.7 | 3.5 | 0.00 | 0.00 | 0.00 | 88 | 1015.3 |
| 20260906061840 | 61 | 61 | 0.9 | 1.7 | 0.00 | 0.00 | 0.00 | 88 | 1015.4 |
| 20260906061336 | 61 | 61 | 0.9 | 1.7 | 0.00 | 0.00 | 0.00 | 87 | 1015.3 |
| 20260906060911 | 61 | 61 | 0.0 | 2.6 | 0.00 | 0.00 | 0.00 | 87 | 1015.3 |
| 20260906060346 | 61 | 61 | 0.9 | 2.6 | 0.00 | 0.00 | 0.00 | 87 | 1015.3 |
| 20260906055834 | 61 | 76 | 0.9 | 1.7 | 0.00 | 0.00 | 0.00 | 87 | 1015.4 |
| 20260906055409 | 61 | 76 | 0.0 | 2.6 | 0.00 | 0.00 | 0.00 | 86 | 1015.4 |
| 20260906054844 | 62 | 76 | 0.9 | 2.6 | 0.00 | 0.00 | 0.00 | 86 | 1015.5 |
| 20260906054400 | 62 | 64 | 0.0 | 1.7 | 0.00 | 0.00 | 0.00 | 86 | 1015.5 |
| 20260906053836 | 62 | 64 | 0.9 | 2.6 | 0.00 | 0.00 | 0.00 | 86 | 1015.5 |
| 20260906053351 | 62 | 64 | 0.9 | 2.6 | 0.00 | 0.00 | 0.00 | 86 | 1015.5 |
| 20260906052848 | 62 | 64 | 0.9 | 2.6 | 0.00 | 0.00 | 0.00 | 86 | 1015.4 |
| 20260906052344 | 62 | 49 | 0.9 | 2.6 | 0.00 | 0.00 | 0.00 | 86 | 1015.5 |
| 20260906051840 | 62 | 49 | 0.0 | 1.7 | 0.00 | 0.00 | 0.00 | 86 | 1015.5 |
| 20260906051336 | 62 | 49 | 0.0 | 2.6 | 0.00 | 0.00 | 0.00 | 86 | 1015.4 |
| 20260906050837 | 62 | 49 | 0.0 | 2.6 | 0.00 | 0.00 | 0.00 | 86 | 1015.4 |
| 20260906050353 | 62 | 46 | 0.0 | 2.6 | 0.00 | 0.00 | 0.00 | 86 | 1015.4 |
| 20260906045841 | 62 | 46 | 0.9 | 2.6 | 0.00 | 0.00 | 0.00 | 86 | 1015.5 |
| 20260906045336 | 62 | 42 | 0.9 | 1.7 | 0.00 | 0.00 | 0.00 | 86 | 1015.4 |
| 20260906044833 | 62 | 42 | 0.9 | 2.6 | 0.00 | 0.00 | 0.00 | 86 | 1015.5 |
| 20260906044411 | 62 | 42 | 0.9 | 2.6 | 0.00 | 0.00 | 0.00 | 85 | 1015.5 |
| 20260906043905 | 62 | 42 | 0.0 | 2.6 | 0.00 | 0.00 | 0.00 | 85 | 1015.4 |
| 20260906043341 | 62 | 39 | 0.9 | 3.5 | 0.00 | 0.00 | 0.00 | 85 | 1015.5 |
| 20260906042837 | 62 | 39 | 1.7 | 3.5 | 0.00 | 0.00 | 0.00 | 85 | 1015.4 |
| 20260906042334 | 62 | 360 | 0.9 | 2.6 | 0.00 | 0.00 | 0.00 | 85 | 1015.4 |
| 20260906041910 | 62 | 96 | 0.0 | 1.7 | 0.00 | 0.00 | 0.00 | 86 | 1015.4 |
| 20260906041405 | 61 | 96 | 0.0 | 2.6 | 0.00 | 0.00 | 0.00 | 87 | 1015.4 |
| 20260906040901 | 61 | 96 | 0.9 | 2.6 | 0.00 | 0.00 | 0.00 | 87 | 1015.4 |
| 20260906040335 | 61 | 96 | 0.0 | 0.9 | 0.00 | 0.00 | 0.00 | 88 | 1015.4 |
| 20260906035844 | 61 | 96 | 0.0 | 0.9 | 0.00 | 0.00 | 0.00 | 89 | 1015.2 |
| 20260906035341 | 61 | 96 | 0.0 | 1.7 | 0.00 | 0.00 | 0.00 | 89 | 1015.1 |
| 20260906034837 | 60 | 96 | 0.0 | 1.7 | 0.00 | 0.00 | 0.00 | 89 | 1015.2 |
| 20260906034333 | 60 | 96 | 0.0 | 1.7 | 0.00 | 0.00 | 0.00 | 90 | 1015.3 |
| 20260906033850 | 60 | 96 | 0.0 | 0.0 | 0.00 | 0.00 | 0.00 | 90 | 1015.2 |
| 20260906033346 | 60 | 96 | 0.0 | 0.9 | 0.00 | 0.00 | 0.00 | 89 | 1015.3 |
| 20260906032842 | 60 | 96 | 0.0 | 0.9 | 0.00 | 0.00 | 0.00 | 89 | 1015.2 |
| 20260906032358 | 60 | 96 | 0.0 | 0.9 | 0.00 | 0.00 | 0.00 | 89 | 1015.2 |
| 20260906031833 | 60 | 96 | 0.0 | 0.0 | 0.00 | 0.00 | 0.00 | 88 | 1015.2 |
| 20260906031348 | 60 | 96 | 0.0 | 0.0 | 0.00 | 0.00 | 0.00 | 88 | 1015.1 |
| 20260906030845 | 60 | 96 | 0.0 | 0.9 | 0.00 | 0.00 | 0.00 | 87 | 1015.0 |
| 20260906030340 | 61 | 96 | 0.0 | 1.7 | 0.00 | 0.00 | 0.00 | 86 | 1015.0 |
| 20260906025846 | 61 | 96 | 0.0 | 2.6 | 0.00 | 0.00 | 0.00 | 86 | 1014.9 |
| 20260906025347 | 62 | 96 | 0.9 | 2.6 | 0.00 | 0.00 | 0.00 | 85 | 1014.9 |
| 20260906024843 | 62 | 107 | 0.9 | 2.6 | 0.00 | 0.00 | 0.00 | 84 | 1015.0 |
| 20260906024340 | 62 | 48 | 0.9 | 2.6 | 0.00 | 0.00 | 0.00 | 84 | 1015.1 |
| 20260906023836 | 62 | 46 | 0.9 | 1.7 | 0.00 | 0.00 | 0.00 | 84 | 1015.1 |
| 20260906023351 | 62 | 46 | 0.9 | 2.6 | 0.00 | 0.00 | 0.00 | 84 | 1015.1 |
| 20260906022847 | 62 | 46 | 0.9 | 1.7 | 0.00 | 0.00 | 0.00 | 83 | 1015.2 |
| 20260906022343 | 62 | 46 | 0.0 | 1.7 | 0.00 | 0.00 | 0.00 | 83 | 1015.1 |
| 20260906021840 | 62 | 46 | 0.0 | 1.7 | 0.00 | 0.00 | 0.00 | 83 | 1015.0 |
| 20260906021336 | 62 | 46 | 0.0 | 1.7 | 0.00 | 0.00 | 0.00 | 82 | 1015.0 |
| 20260906020852 | 63 | 46 | 0.0 | 1.7 | 0.00 | 0.00 | 0.00 | 81 | 1015.0 |
| 20260906020348 | 63 | 46 | 0.0 | 0.9 | 0.00 | 0.00 | 0.00 | 81 | 1014.9 |
| 20260906015835 | 63 | 46 | 0.0 | 1.7 | 0.00 | 0.00 | 0.00 | 81 | 1014.9 |
| 20260906015333 | 63 | 46 | 0.9 | 1.7 | 0.00 | 0.00 | 0.00 | 81 | 1014.8 |
| 20260906014848 | 63 | 46 | 0.0 | 1.7 | 0.00 | 0.00 | 0.00 | 81 | 1014.9 |
| 20260906014345 | 63 | 46 | 0.0 | 1.7 | 0.00 | 0.00 | 0.00 | 80 | 1014.9 |
| 20260906013841 | 63 | 49 | 0.0 | 2.6 | 0.00 | 0.00 | 0.00 | 79 | 1015.0 |
| 20260906013400 | 64 | 49 | 0.9 | 2.6 | 0.00 | 0.00 | 0.00 | 79 | 1014.9 |
| 20260906012855 | 64 | 38 | 0.0 | 2.6 | 0.00 | 0.00 | 0.00 | 79 | 1014.8 |
| 20260906012336 | 64 | 37 | 0.9 | 5.2 | 0.00 | 0.00 | 0.00 | 79 | 1014.9 |
| 20260906011851 | 64 | 37 | 1.7 | 5.2 | 0.00 | 0.00 | 0.00 | 79 | 1014.8 |
| 20260906011348 | 64 | 99 | 1.7 | 5.2 | 0.00 | 0.00 | 0.00 | 79 | 1014.9 |
| 20260906010904 | 64 | 360 | 1.7 | 5.2 | 0.00 | 0.00 | 0.00 | 79 | 1014.8 |
| 20260906010340 | 63 | 18 | 1.7 | 4.3 | 0.00 | 0.00 | 0.00 | 79 | 1014.7 |
| 20260906005848 | 63 | 38 | 0.9 | 4.3 | 0.00 | 0.00 | 0.00 | 81 | 1014.7 |
| 20260906005345 | 63 | 32 | 0.0 | 0.9 | 0.00 | 0.00 | 0.00 | 81 | 1014.6 |
| 20260906004840 | 64 | 32 | 0.0 | 2.6 | 0.00 | 0.00 | 0.00 | 80 | 1014.6 |
| 20260906004357 | 64 | 32 | 0.9 | 2.6 | 0.00 | 0.00 | 0.00 | 80 | 1014.5 |
| 20260906003832 | 64 | 32 | 0.9 | 2.6 | 0.00 | 0.00 | 0.00 | 80 | 1014.6 |
| 20260906003349 | 63 | 31 | 1.7 | 2.6 | 0.00 | 0.00 | 0.00 | 81 | 1014.6 |
| 20260906002846 | 63 | 360 | 0.9 | 2.6 | 0.00 | 0.00 | 0.00 | 81 | 1014.6 |
| 20260906002342 | 64 | 17 | 0.9 | 3.5 | 0.00 | 0.00 | 0.00 | 81 | 1014.5 |
| 20260906001838 | 64 | 39 | 0.9 | 3.5 | 0.00 | 0.00 | 0.00 | 81 | 1014.4 |
| 20260906001334 | 64 | 5 | 0.9 | 3.5 | 0.00 | 0.00 | 0.00 | 81 | 1014.4 |
| 20260906000851 | 64 | 337 | 0.9 | 2.6 | 0.00 | 0.00 | 0.00 | 81 | 1014.4 |
| 20260906000348 | 64 | 343 | 0.9 | 2.6 | 0.00 | 0.00 | 0.00 | 80 | 1014.5 |
| 20260905235835 | 64 | 350 | 0.9 | 2.6 | 0.00 | 0.00 | 0.00 | 80 | 1014.4 |
| 20260905235351 | 64 | 351 | 0.0 | 3.5 | 0.00 | 0.00 | 0.00 | 80 | 1014.4 |
| 20260905234908 | 64 | 360 | 1.7 | 3.5 | 0.00 | 0.00 | 0.00 | 79 | 1014.4 |
| 20260905234343 | 64 | 338 | 1.7 | 3.5 | 0.00 | 0.00 | 0.00 | 79 | 1014.3 |
| 20260905233841 | 65 | 336 | 0.9 | 2.6 | 0.00 | 0.00 | 0.00 | 78 | 1014.3 |
| 20260905233341 | 65 | 333 | 0.9 | 2.6 | 0.00 | 0.00 | 0.00 | 78 | 1014.3 |
| 20260905232837 | 65 | 339 | 0.9 | 2.6 | 0.00 | 0.00 | 0.00 | 77 | 1014.3 |
| 20260905232414 | 65 | 295 | 1.7 | 7.8 | 0.00 | 0.00 | 0.00 | 76 | 1014.4 |